TimeEDT,TemperatureF,Dew PointF,Humidity,Sea Level PressureIn,VisibilityMPH,Wind Direction,Wind SpeedMPH,Gust SpeedMPH,PrecipitationIn,Events,Conditions,WindDirDegrees,DateUTC
12:53 AM,63.0,55.9,78,30.13,10.0,SSE,3.5,-,N/A,,Clear,150,2013-08-19 04:53:00
1:53 AM,61.0,57.0,87,30.12,7.0,South,4.6,-,N/A,,Clear,170,2013-08-19 05:53:00
2:53 AM,60.1,55.9,86,30.12,7.0,Calm,Calm,-,N/A,,Clear,0,2013-08-19 06:53:00
3:53 AM,60.1,55.9,86,30.11,6.0,Calm,Calm,-,N/A,,Clear,0,2013-08-19 07:53:00
4:53 AM,57.9,54.0,87,30.11,6.0,Calm,Calm,-,N/A,,Clear,0,2013-08-19 08:53:00
5:53 AM,55.9,52.0,87,30.12,7.0,Calm,Calm,-,N/A,Fog,Patches of Fog,0,2013-08-19 09:53:00
6:01 AM,55.4,51.8,88,30.13,7.0,Calm,Calm,-,N/A,Fog,Patches of Fog,0,2013-08-19 10:01:00
6:12 AM,55.4,51.8,88,30.13,6.0,Calm,Calm,-,N/A,Fog,Clear,0,2013-08-19 10:12:00
6:53 AM,55.0,51.1,86,30.14,5.0,Calm,Calm,-,N/A,Fog,Partly Cloudy,0,2013-08-19 10:53:00
7:53 AM,57.9,53.1,84,30.14,4.0,Calm,Calm,-,N/A,Fog,Partly Cloudy,0,2013-08-19 11:53:00
8:53 AM,62.1,57.9,86,30.14,4.0,SSE,3.5,-,N/A,,Clear,150,2013-08-19 12:53:00
9:53 AM,71.1,57.9,63,30.13,10.0,WSW,5.8,-,N/A,,Clear,240,2013-08-19 13:53:00
10:53 AM,75.0,57.0,53,30.12,10.0,Calm,Calm,-,N/A,,Clear,0,2013-08-19 14:53:00
12:53 PM,80.1,57.0,45,30.12,10.0,West,9.2,-,N/A,,Partly Cloudy,270,2013-08-19 16:53:00
1:53 PM,80.1,57.0,45,30.10,10.0,WSW,9.2,-,N/A,,Scattered Clouds,240,2013-08-19 17:53:00
2:53 PM,80.1,57.9,47,30.09,10.0,West,9.2,-,N/A,,Scattered Clouds,270,2013-08-19 18:53:00
3:53 PM,82.9,57.9,42,30.08,10.0,WSW,17.3,23.0,N/A,,Scattered Clouds,250,2013-08-19 19:53:00
4:53 PM,82.0,57.0,42,30.07,10.0,WSW,13.8,18.4,N/A,,Partly Cloudy,250,2013-08-19 20:53:00
5:53 PM,81.0,55.9,42,30.06,10.0,SW,13.8,17.3,N/A,,Scattered Clouds,230,2013-08-19 21:53:00
6:53 PM,79.0,55.9,45,30.07,10.0,WSW,10.4,-,N/A,,Partly Cloudy,250,2013-08-19 22:53:00
7:53 PM,75.9,57.0,52,30.06,10.0,WSW,8.1,-,N/A,,Partly Cloudy,240,2013-08-19 23:53:00
8:53 PM,73.0,55.9,55,30.06,10.0,SW,5.8,-,N/A,,Partly Cloudy,220,2013-08-20 00:53:00
9:53 PM,71.1,57.0,61,30.07,10.0,Calm,Calm,-,N/A,,Partly Cloudy,0,2013-08-20 01:53:00
10:53 PM,68.0,57.9,70,30.07,10.0,Calm,Calm,-,N/A,,Scattered Clouds,0,2013-08-20 02:53:00
11:53 PM,64.0,57.9,80,30.07,9.0,Calm,Calm,-,N/A,,Scattered Clouds,0,2013-08-20 03:53:00